TimeSAST,TemperatureF,Dew PointF,Humidity,Sea Level PressureIn,VisibilityMPH,Wind Direction,Wind SpeedMPH,Gust SpeedMPH,PrecipitationIn,Events,Conditions,WindDirDegrees,DateUTC
12:00 AM,62.6,59.0,88,30.04,5.6,East,4.6,-,N/A,,Unknown,100,2013-01-15 22:00:00
1:00 AM,60.8,59.0,94,30.04,-9999.0,Variable,2.3,-,N/A,,Clear,0,2013-01-15 23:00:00
2:00 AM,60,58,90,30.03,6,,2.3,,,,,,2013-01-16 00:00:00
2:00 AM,60.8,59.0,94,30.01,6.2,NNW,2.3,-,N/A,,Scattered Clouds,330,2013-01-16 00:00:00
3:00 AM,60.8,59.0,94,30.01,6.2,ENE,4.6,-,N/A,,Partly Cloudy,60,2013-01-16 01:00:00
4:00 AM,59.0,57.2,94,30.01,5.6,East,4.6,-,N/A,,Unknown,100,2013-01-16 02:00:00
5:00 AM,60,58,89,30.01,12,North,3.5,,,,,350,2013-01-16 03:00:00
5:00 AM,59.0,57.2,94,30.01,-9999.0,North,3.5,-,N/A,,Clear,10,2013-01-16 03:00:00
6:00 AM,59.0,57.2,94,30.01,6.2,NNW,2.3,-,N/A,,Partly Cloudy,340,2013-01-16 04:00:00
7:00 AM,62.6,59.0,88,29.98,6.2,Variable,1.2,-,N/A,,Partly Cloudy,0,2013-01-16 05:00:00
8:00 AM,66,61,78,29.99,12,,1.2,,,,Scattered Clouds,,2013-01-16 06:00:00
8:00 AM,66.2,60.8,83,29.98,6.2,Calm,Calm,-,N/A,,Partly Cloudy,0,2013-01-16 06:00:00
9:00 AM,71.6,60.8,69,29.98,6.2,Variable,2.3,-,N/A,,Partly Cloudy,0,2013-01-16 07:00:00
10:00 AM,75.2,62.6,65,29.95,6.2,Variable,3.5,-,N/A,,Partly Cloudy,0,2013-01-16 08:00:00
11:00 AM,76,63,55,29.93,12,SSE,6.9,,,,,150,2013-01-16 09:00:00
11:00 AM,75.2,62.6,65,29.95,-9999.0,SSE,8.1,-,N/A,,Clear,160,2013-01-16 09:00:00
12:00 PM,77.0,62.6,61,29.95,6.2,SE,9.2,-,N/A,,Partly Cloudy,140,2013-01-16 10:00:00
1:00 PM,78.8,64.4,61,29.92,-9999.0,ESE,10.4,-,N/A,,Clear,120,2013-01-16 11:00:00
2:00 PM,78,63,51,29.88,19,East,9.2,,,,,100,2013-01-16 12:00:00
2:00 PM,77.0,62.6,61,29.89,-9999.0,SE,11.5,-,N/A,,Clear,130,2013-01-16 12:00:00
3:00 PM,77.0,62.6,61,29.89,-9999.0,SE,10.4,-,N/A,,Clear,130,2013-01-16 13:00:00
4:00 PM,77.0,64.4,65,29.89,-9999.0,ESE,9.2,-,N/A,,Clear,120,2013-01-16 14:00:00
5:00 PM,77,64,55,29.86,12,ESE,9.2,,,,Scattered Clouds,120,2013-01-16 15:00:00
5:00 PM,77.0,62.6,61,29.89,-9999.0,ESE,9.2,-,N/A,,Clear,110,2013-01-16 15:00:00
6:00 PM,73.4,64.4,73,29.89,-9999.0,ESE,10.4,-,N/A,,Clear,110,2013-01-16 16:00:00
7:00 PM,69.8,64.4,83,29.89,-9999.0,East,8.1,-,N/A,,Clear,100,2013-01-16 17:00:00
8:00 PM,68,65,85,29.90,5,North,5.8,,,,Mist,10,2013-01-16 18:00:00
8:00 PM,68.0,64.4,88,29.92,5.0,ESE,3.5,-,N/A,,Partly Cloudy,120,2013-01-16 18:00:00
10:00 PM,68.0,64.4,88,29.89,2.8,East,5.8,-,N/A,,Overcast,100,2013-01-16 20:00:00
11:00 PM,68.0,66.2,94,29.92,-9999.0,SSE,3.5,-,N/A,,Overcast,160,2013-01-16 21:00:00